Weather History for Nassau, Bahamas

Change the Weather History Date:

Thursday, October 20, 2011

  Actual Average Record
Temperature  
Mean Temperature 77 °F -  
Max Temperature 80 °F 83 °F 91 °F (2010)
Min Temperature 74 °F 69 °F 66 °F (1996)
Cooling Degree Days 12    
Growing Degree Days 27 (Base 50)    
Moisture  
Dew Point 67 °F    
Average Humidity 68    
Maximum Humidity 100    
Minimum Humidity 45    
Precipitation  
Precipitation 0.20 in 0.13 in - ()
Sea Level Pressure  
Sea Level Pressure 29.97 in    
Wind  
Wind Speed 7 mph ()    
Max Wind Speed 16 mph    
Max Gust Speed 24 mph    
Visibility 6.6 miles    
Events Rain    
Averages and records for this station are not official NWS values.
T = Trace of Precipitation, MM = Missing Value Source: Averaged Metar Reports

Daily Weather History Graph

Daily Weather History Graph

Search for Another Location

Airport:

Trip Planner

Search our weather history database for the weather conditions in past years. The results will help you decide how hot, cold, wet, or windy it might be!

Date:

Astronomy

Oct. 20, 2011 Rise Set
Actual Time 7:10 AM EDT 6:38 PM EDT
Civil Twilight 6:47 AM EDT 7:01 PM EDT
Nautical Twilight 6:20 AM EDT 7:28 PM EDT
Astronomical Twilight 5:53 AM EDT 7:54 PM EDT
Moon 12:36 AM EDT 2:06 PM EDT
Length of Visible Light 12h 14m
Length of Day
11h 28m
Last Quarter, 44% of the Moon is Illuminated
Oct 20
Last Quarter
Oct 26
New
Nov 2
First Quarter
Nov 10
Full
Nov 18
Last Quarter

Hourly Weather History & Observations

Time (EDT) Temp. Heat Index Dew Point Humidity Pressure Visibility Wind Dir Wind Speed Gust Speed Precip Events Conditions
12:00 AM 80.6 °F 86.2 °F 75.2 °F 84% 29.87 in 6.2 mi WSW 9.2 mph - N/A   Mostly Cloudy
1:00 AM 80.6 °F 86.2 °F 75.2 °F 84% 29.87 in 6.2 mi WNW 5.8 mph - N/A   Mostly Cloudy
2:00 AM 78.8 °F - 73.4 °F 83% 29.87 in 6.2 mi Calm Calm - N/A Rain Light Rain Showers
3:00 AM 77.0 °F - 77.0 °F 100% 29.88 in 6.2 mi Calm Calm - N/A Rain Light Rain
4:00 AM 77.0 °F - 77.0 °F 100% 29.88 in 6.2 mi Calm Calm - N/A Rain Light Rain
5:00 AM 77 °F - 74 °F 87% 29.89 in 6 mi NNW 6.9 mph - - Rain Light Rain
5:00 AM 77.0 °F - 73.4 °F 89% 29.88 in 5.6 mi NNW 6.9 mph - N/A Rain Light Rain
7:00 AM 77.0 °F - 73.4 °F 89% 29.93 in 6.2 mi NNW 16.1 mph - N/A   Overcast
8:00 AM 76 °F - 70 °F 76% 29.96 in 7 mi NNW 12.7 mph - - Rain Light Rain Showers
8:00 AM 77.0 °F - 68.0 °F 74% 29.96 in 6.2 mi NNW 12.7 mph - N/A   Overcast
9:00 AM 78.8 °F - 66.2 °F 65% 29.98 in 6.2 mi NNW 11.5 mph 24.2 mph N/A   Overcast
10:00 AM 80.6 °F 81.8 °F 62.6 °F 54% 30.01 in 6.2 mi NNW 11.5 mph - N/A   Overcast
11:00 AM 77 °F - 65 °F 57% 30.03 in 11 mi North 10.4 mph - -   Mostly Cloudy
11:00 AM 77.0 °F - 64.4 °F 65% 30.03 in 6.2 mi North 10.4 mph - N/A   Mostly Cloudy
12:00 PM 82.4 °F 82.9 °F 60.8 °F 48% 30.01 in 6.2 mi NNW 10.4 mph - N/A   Mostly Cloudy
1:00 PM 80.6 °F 82.7 °F 66.2 °F 61% 30.00 in 6.2 mi North 10.4 mph - N/A   Overcast
2:00 PM 78 °F - 64 °F 52% 29.99 in 8 mi North 10.4 mph - -   Overcast
2:00 PM 77.0 °F - 64.4 °F 65% 29.99 in 6.2 mi North 10.4 mph - N/A   Overcast
3:00 PM 82.4 °F 82.5 °F 59.0 °F 45% 29.97 in 6.2 mi North 10.4 mph - N/A   Mostly Cloudy
4:00 PM 80.6 °F 82.7 °F 66.2 °F 61% 29.97 in 6.2 mi North 10.4 mph - N/A   Mostly Cloudy
5:00 PM 78 °F - 64 °F 53% 29.98 in 8 mi North 10.4 mph - -   Mostly Cloudy
5:00 PM 78.8 °F - 64.4 °F 61% 29.97 in 6.2 mi North 10.4 mph - N/A   Mostly Cloudy
6:00 PM 78.8 °F - 66.2 °F 65% 29.98 in 6.2 mi North 9.2 mph - N/A   Mostly Cloudy
7:00 PM 77.0 °F - 64.4 °F 65% 30.00 in 6.2 mi NNE 6.9 mph - N/A   Mostly Cloudy
8:00 PM 77 °F - 63 °F 53% 30.01 in 8 mi NNE 9.2 mph - -   Mostly Cloudy
8:00 PM 77.0 °F - 62.6 °F 61% 30.01 in 6.2 mi NNE 9.2 mph - N/A   Mostly Cloudy
9:00 PM 77.0 °F - 66.2 °F 69% 30.02 in 6.2 mi NNE 8.1 mph - N/A   Mostly Cloudy
10:00 PM 80.6 °F 80.8 °F 57.2 °F 45% 30.03 in 6.2 mi NNE 8.1 mph - N/A   Mostly Cloudy
11:00 PM 77 °F - 64 °F 54% 30.04 in 8 mi NNE 3.5 mph - -   Mostly Cloudy
11:00 PM 77.0 °F - 62.6 °F 61% 30.04 in 6.2 mi NNE 3.5 mph - N/A   Mostly Cloudy